This demonstration page uses our WeatherBlox Daily Observations layout. Learn more.

Left ArrowRight Arrow

Hourly Observations for April 26, 2022

Temp ( °F °C ) Dew Point ( °F °C ) Humidity (%) Winds ( mph kmh ) Pressure ( in mb ) Visibility ( mi km ) Precip ( " mm )
12:53 am 00:53 Cloudy 64 17.8 50 10 60 60 N 6 9 29.91 1013 10 16 0.00 0.00
1:53 am 01:53 Mostly Cloudy 63 17.2 47 8.3 56 56 W 5 7 29.91 1013 10 16 0.00 0.00
2:53 am 02:53 Clear 61 16.1 41 5 48 48 WNW 6 9 29.90 1013 10 16 0.00 0.00
3:53 am 03:53 Clear 61 16.1 37 2.8 41 41 W 8 13 29.91 1013 10 16 0.00 0.00
4:53 am 04:53 Clear 58 14.4 36 2.2 44 44 W 6 9 29.91 1013 10 16 0.00 0.00
5:53 am 05:53 Clear 57 13.9 36 2.2 45 45 WNW 5 7 29.93 1013 10 16 0.00 0.00
6:53 am 06:53 Sunny 57 13.9 36 2.2 45 45 NW 8 13 29.93 1014 10 16 0.00 0.00
7:53 am 07:53 Sunny 59 15 37 2.8 44 44 NW 6 9 29.95 1014 10 16 0.00 0.00
8:53 am 08:53 Sunny 62 16.7 36 2.2 38 38 NW 8 13 29.97 1015 10 16 0.00 0.00
9:53 am 09:53 Sunny 65 18.3 38 3.3 37 37 Calm 29.97 1015 10 16 0.00 0.00
10:53 am 10:53 Sunny 67 19.4 38 3.3 35 35 WNW 3 6 29.96 1015 10 16 0.00 0.00
11:53 am 11:53 Sunny 69 20.6 37 2.8 31 31 SW 3 6 29.95 1014 10 16 0.00 0.00
12:53 pm 12:53 Sunny 70 21.1 38 3.3 31 31 Calm 29.93 1014 9 14 0.00 0.00
1:53 pm 13:53 Sunny 74 23.3 31 -0.6 20 20 VRB 5 7 29.91 1013 10 16 0.00 0.00
2:53 pm 14:53 Sunny 77 25 29 -1.7 17 17 VRB 5 7 29.90 1012 10 16 0.00 0.00
3:53 pm 15:53 Sunny 76 24.4 28 -2.2 17 17 SSW 6 9 29.88 1012 10 16 0.00 0.00
4:53 pm 16:53 Sunny 77 25 27 -2.8 16 16 undefined N/A 29.86 1011 10 16 0.00 0.00
5:53 pm 17:53 Sunny 76 24.4 26 -3.3 16 16 VRB 3 6 29.85 1011 10 16 0.00 0.00
6:53 pm 18:53 Sunny 76 24.4 26 -3.3 16 16 VRB 5 7 29.85 1011 10 16 0.00 0.00
7:53 pm 19:53 Sunny 71 21.7 25 -3.9 18 18 WNW 6 9 29.85 1011 10 16 0.00 0.00
8:53 pm 20:53 Clear 68 20 26 -3.3 21 21 W 5 7 29.85 1011 10 16 0.00 0.00
9:53 pm 21:53 Clear 65 18.3 28 -2.2 25 25 Calm 29.86 1011 10 16 0.00 0.00
10:53 pm 22:53 Clear 63 17.2 30 -1.1 29 29 NW 5 7 29.87 1012 10 16 0.00 0.00
11:53 pm 23:53 Clear 54 12.2 40 4.4 59 59 Calm 29.88 1012 10 16 0.00 0.00

Powered by AerisWeather